User: anonymous   Login
Location: Frizzleburg
(41.0764°N, 80.4548°W)
Time: 21:02:17
(UTC+00:00)
Language:

SJ 16-02 - Orbit

View from above orbital plane
View from above orbital plane
View from above satellite
View from above satellite

Ground track
Ground track

The orbit data is extracted from the following two-line orbital elements,

1 41634U 16043A   20020.45416104  .00000048  00000-0  86773-5 0  9999
2 41634  75.0036 351.2517 0008611 288.3349  71.6903 14.85633602193117
Epoch (UTC): 20 January 2020 10:53:59
Eccentricity: 0.0008611
inclination: 75.0036°
perigee height: 605 km
apogee height: 617 km
right ascension of ascending node: 351.2517°
argument of perigee: 288.3349°
revolutions per day: 14.85633602
mean anomaly at epoch: 71.6903°
orbit number at epoch: 19311

The dashed part of the orbit path shows where the satellite is in the earth's shadow,  

DLR